Location: Asheville, NC
(35.6000°N, 82.5500°W)
Time: 23:05:30
(UTC-04:00)

Vanguard 3 - Pass Details

Date: 14 February 2018
Orbit: 508 x 3264 km, 33.4° (Epoch: 20 May)

Event Time Altitude Azimuth Distance (km) Brightness Sun altitude
Rises 15:56:15 0° 211° (SSW) 3,035 11.3 23.7°
Reaches altitude 10° 16:00:01 10° 182° (S) 1,846 9.7 23.1°
Maximum altitude 16:01:47 13° 155° (SSE) 1,604 8.9 22.8°
Drops below altitude 10° 16:03:28 10° 128° (SE) 1,717 8.8 22.5°
Sets 16:06:40 0° 96° (E) 2,611 9.4 22.0°
